Location: Colossi of Memnon
(25.7167°N, 32.6167°E)
Time: 21:48:53
(UTC+00:00)

Envisat - Pass Details

Date: 23 September 2021
Orbit: 764 x 766 km, 98.2° (Epoch: 15 October)

Event Time Altitude Azimuth Distance (km) Brightness Sun altitude
Rises 01:57:13 0° 31° (NNE) 3,227 6.9 -23.5°
Reaches altitude 10° 02:00:01 10° 46° (NE) 2,298 6.2 -22.9°
Maximum altitude 02:03:55 22° 97° (E) 1,607 5.4 -22.0°
Drops below altitude 10° 02:07:48 10° 148° (SSE) 2,290 5.7 -21.1°
Sets 02:10:34 0° 162° (SSE) 3,213 6.3 -20.5°
